Regional Weather Roundup
Issued by NWS Newport/Morehead, NC

Current Version | Previous Version | Text Only | Print | Product List | Glossary On
Versions: 1 2 3 4 5 6 7 8 9 10 11 12 13 14 15 16 17 18 19 20 21 22 23 24 25 26 27 28 29 30 31 32 33 34 35 36 37 38 39 40 41 42 43 44 45 46 47 48 49 50
000
ASUS42 KMHX 300413
RWRMHX
WEATHER ROUNDUP FOR EASTERN NORTH CAROLINA
NATIONAL WEATHER SERVICE NEWPORT/MOREHEAD CITY NC
1200 AM EDT THU MAR 30 2017

NOTE: "FAIR" INDICATES FEW OR NO CLOUDS BELOW 12,000 FEET
WITH NO SIGNIFICANT WEATHER AND/OR OBSTRUCTIONS TO VISIBILITY

NCZ015>017-031-032-045>047-102-103-300500-
NORTH COAST

CITY           SKY/WX    TMP DP  RH WIND       PRES   REMARKS
EDENTON        NOT AVBL
ELIZABETH CITY CLEAR     47  45  93 E5        30.18R
KITTY HAWK     NOT AVBL
MANTEO         CLEAR     48  46  91 E8        30.17S

$$

NCZ045>047-081-094-103-104-300500-
CENTRAL COAST

CITY           SKY/WX    TMP DP  RH WIND       PRES   REMARKS
FRISCO         CLEAR     52  46  80 E9        30.15S

$$

NCZ095-097-098-100-101-300500-
SOUTHERN COAST

CITY           SKY/WX    TMP DP  RH WIND       PRES   REMARKS
BEAUFORT       CLEAR     55  51  86 NE6       30.14S
CEDAR ISLAND   NOT AVBL
JACKSONVILLE   CLEAR     56  52  86 SE9       30.13F
PINEY ISLAND   CLEAR    N/A N/A N/A E10       30.14F
WILMINGTON     CLEAR     59  56  89 E9        30.13S


$$

NCZ011>013-027>030-043-044-078>080-089-090>093-098-300500-
COASTAL PLAIN

CITY           SKY/WX    TMP DP  RH WIND       PRES   REMARKS
AHOSKIE        NOT AVBL
CLINTON        CLEAR     58  56  92 SE5       30.13S
ELIZABETHTOWN  MOCLDY    59  54  82 CALM      30.12S
GOLDSBORO      CLEAR     55  55 100 E8        30.12R
GREENVILLE     CLEAR     52  48  87 E7        30.17R
HAVELOCK       CLEAR     53  48  83 E7        30.15F
KENANSVILLE    CLEAR     55  52  88 SE5       30.14R
KINSTON        CLEAR     55  51  88 E7        30.15S
NEW BERN       CLEAR     52  49  89 E8        30.15F
RICHLANDS      CLEAR     53  50  89 E5        30.15R
ROCKY MOUNT    CLEAR     55  52  89 VRB6      30.14R
WASHINGTON     CLEAR     50  47  89 E3        30.16S
WHITEVILLE     CLEAR     60  55  83 E5        30.12S

$$

AMZ130-135-150-152-154-156-158-170-250-252-270-ANZ085-086-088-633-658-670-300500-
MARINE OBSERVATIONS

STATION/POSITION TIME  TEMP    WIND        PRES    WAVE   SWELL
                       AIR SEA DIR/SP/G            HT/PER HT/PER
                 (UTC) (F)     (DEG/KT/KT) (MB)    (FT/S) (FT/S)
CHESAPEAKE LIGHT NOT AVBL
64 E VA BEACH    0350   50 50   70/  6/  6 1021.2    5/ 8   5/ 8
DUCK             0342   49 51   90/  7/  8 1021.1
2 E DUCK         0400      51                N/A     4/ 8   2/11
OREGON INLET     0348           40/  9/ 11   N/A
13E OREGON INLT  0348      50                N/A     5/ 9   5/ 9
HATTERAS CG      0342   52 61   80/  5/  9 1020.5
DIAMOND BUOY     0350   60 74   40/ 19/ 21 1020.5    6/ 9   3/ 9
CAPE LOOKOUT     0400   60      60/ 18/ 20 1020.2
BEAUFORT LAB     0342   55 62   50/  6/ 11 1019.7
30 SE NEW RVR IN 0308   61      70/ 16/ 21 1020.3
30 SE NEW RVR IN 0343      64                N/A     6/10   2/11
27 SE WRIGHTSVLE 0308   65 74  100/ 16/ 21 1019.3
5 SE WRIGHTSVLE  0308   60 59   90/ 16/ 23 1019.7
225 S CAPE HAT   0350   69 72   50/ 14/ 17 1018.1    6/10   5/10
41 SE CHARLESTON 0350   71 68   80/ 16/ 19 1017.4    5/11   3/11

$$



USA.gov is the U.S. government's official web portal to all federal, state and local government web resources and services.